NUSAT-50 (NANCY ROMAN)

导读

NUSAT-50又名“南希·罗曼”,于2024年8月16日由阿根廷发射升空。该卫星以纪念美国宇航局著名天文学家南希·格蕾丝·罗曼命名,延续了对这位“哈勃望远镜之母”在空间天文学领域开拓贡献的致敬。作为阿根廷参与国际航天合作的小型卫星项目,它承载着技术验证与天文观测相关试验任务,是南美国家航天领域探索的最新实践,进一步推动了区域航天能力的发展。

基本信息
目录编号:
60493
目录名称:
NUSAT-50 (NANCY ROMAN)
国际标识:
2024-149AB
轨道中心:
EARTH
卫星名称:
NUSAT-50 (NANCY ROMAN)
卫星全名:
NUSAT-50 (NANCY ROMAN)
卫星状态:
在轨 (已飞行749 天)
发射日期:
2024-08-16 UTC
国别 :
阿根廷 (AR)
星等 :
--
轨道信息
数据来源 国际轨道数据
星历时间: 2026-09-04T00:39:32+0800
21小时前
查看轨道信息
半长轴: 6852.905km
偏心率: 0.0001472
轨道倾角: 97.374°
近地点辐角 273.783°
升交点赤经 327.444°
平近点角 86.324°
近地点: 473.759km
远地点: 475.777km
周期: 94.096分钟
每日圈数: 15.303498
详细信息
使用方式:
暂无
2D轨道图
3D轨道图
轨道高度分析图
轨道倾角分析图
轨道综合分析图
查看轨道综合分析图
交会数据列表
事件ID 空间交会对象 最接近时刻(TCA) 交会距离 交会风险概率(CRP) 交会风险指数(CRI) 操作
CDM_260905-235605-306606-049321
2026-09-05T
23:56:28+0000
0.987 km
远距离
2.318328E-5 中风险 0.62
CDM_260906-021206-049306-392621
2026-09-06T
02:12:38+0000
1.530 km
极远距离
6.254707E-6 低风险 0.51